295  
ASUS43 KGRB 171511  
RWRGRB  
 
NORTH-CENTRAL AND NORTHEAST WISCONSIN REGIONAL WEATHER ROUNDUP  
NATIONAL WEATHER SERVICE GREEN BAY WI  
900 AM CST SUN DEC 17 2017  
 
WIZ005-009-010>012-018-019-171600-  
NORTH CENTRAL WISCONSIN  
 
CITY SKY/WX TMP DP RH WIND PRES REMARKS
 
IRONWOOD CLOUDY 23 20 88 S7 30.09F  
MANITOWISH WTR CLOUDY 20 20 100 SE5 30.07F  
ARBOR VITAE CLOUDY 22 20 93 SE5 30.07F FOG  
EAGLE RIVER CLOUDY 19 19 99 CALM 30.08F FOG  
LAND O LAKES CLOUDY 20 19 96 S3 30.10S FOG  
RHINELANDER CLOUDY 21 20 96 E6 30.08F  
PHILLIPS CLOUDY 23 23 100 SE5 30.07F  
ANTIGO CLOUDY 22 21 99 E8 30.09F FOG  
TOMAHAWK CLOUDY 22 21 95 CALM 30.08F FOG  
MERRILL CLOUDY 23 23 99 E5 30.09F FOG  

 
 
WIZ013-073-171600-  
NORTHEAST WISCONSIN  
 
CITY SKY/WX TMP DP RH WIND PRES REMARKS
 
IRON MOUNTAIN CLOUDY 18 15 88 CALM 30.13S  
MARINETTE CLOUDY 29 24 82 SE10 30.16F  
OCONTO CLOUDY 23 19 87 N3 30.15F  

 
 
WIZ017-030-035>037-045-171600-  
CENTRAL WISCONSIN  
 
CITY SKY/WX TMP DP RH WIND PRES REMARKS
 
MEDFORD CLOUDY 23 22 96 E7 30.06F FOG  
WAUSAU CLOUDY 23 22 96 SE7 30.09S FOG  
MOSINEE CLOUDY 23 23 100 E5 30.11S FOG  
MARSHFIELD CLOUDY 24 23 96 E8 30.08R FOG  
WISC RAPIDS CLOUDY 25 22 88 E5 30.12R FOG  
STEVENS POINT CLOUDY 22 22 100 E6 30.11S FOG  
WAUPACA CLOUDY 27 24 88 CALM 30.13S  
SHAWANO CLOUDY 24 20 87 NE3 30.15S  
CLINTONVILLE CLOUDY 23 19 86 NE5 30.14  
WAUTOMA CLOUDY 26 24 92 NE5 30.13R  

 
 
WIZ038-039-048-051-171600-  
FOX VALLEY  
 
CITY SKY/WX TMP DP RH WIND PRES REMARKS
 
NWS GREEN BAY CLOUDY 26 22 84 NE7 30.14S  
APPLETON CLOUDY 27 23 86 NE5 30.11S  
OSHKOSH CLOUDY 30 28 92 E9 30.11S FOG  
FOND DU LAC CLOUDY 31 27 85 E7 30.11S  

 
 
WIZ022-050-052-171600-  
EAST CENTRAL WISCONSIN  
 
CITY SKY/WX TMP DP RH WIND PRES REMARKS
 
EPHRAIM CLOUDY 27 24 87 SE8 30.15S  
WASHINGTON ISL CLOUDY 28 23 82 SE9 30.17S  
STURGEON BAY CLOUDY 29 26 89 E7 30.15F  
MANITOWOC CLOUDY 31 28 89 E10 30.14S  
SHEBOYGAN CLOUDY 30 28 92 E9 30.13R  

 
 
LMZ563-521-522-541>543-171600-  
LAKESHORE  
 
STATION/POSITION TIME TEMP WIND PRES VSBY WAVE
 
AIR SEA DIR/SP/G HT/PER  
(UTC) (F) (DEG/KT/KT) (MB) (MI) (FT/S)  
SHEBOYGAN LKSHOR 1400 31 90/ 13/ 15 1020.9F  
KEWAUNEE LKSHORE 1448 31 110/ 9/ 12 1020.2R  
NORTHPORT PIER 1440 29 110/ 13/ 16 1021.7S  
SISTER BAY LKSHO 1420 29 110/ 10/ 17 N/A  
MENOMINEE LKSHOR 1448 29 100/ 11/ 15 1021.1F  

 
 
 
CLICK HERE TO GO TO PREVIOUS BULLETINS.

The Nexlab WI Page Main Text Page